Year,Month,Day,Hour,Minute,Value (Times are PST for temperature in C)
2015,03,24,00,00,5.90
2015,03,24,00,01,5.90
2015,03,24,00,02,5.90
2015,03,24,00,03,5.90
2015,03,24,00,04,5.90
2015,03,24,00,05,5.90
2015,03,24,00,06,5.90
2015,03,24,00,07,5.90
2015,03,24,00,08,5.90
2015,03,24,00,09,5.90
2015,03,24,00,10,5.90
2015,03,24,00,11,5.90
2015,03,24,00,12,5.90
2015,03,24,00,13,5.90
2015,03,24,00,14,5.90
2015,03,24,00,15,5.90
2015,03,24,00,16,5.90
2015,03,24,00,17,5.80
2015,03,24,00,18,5.80
2015,03,24,00,19,5.80
2015,03,24,00,20,5.80
2015,03,24,00,21,5.80
2015,03,24,00,22,5.80
2015,03,24,00,23,5.80
2015,03,24,00,24,5.80
2015,03,24,00,25,5.80
2015,03,24,00,26,5.80
2015,03,24,00,27,5.80
2015,03,24,00,28,5.80
2015,03,24,00,29,5.80
2015,03,24,00,30,5.80
2015,03,24,00,31,5.80
2015,03,24,00,32,5.80
2015,03,24,00,33,5.80
2015,03,24,00,34,5.80
2015,03,24,00,35,5.80
2015,03,24,00,36,5.80
2015,03,24,00,37,5.80
2015,03,24,00,38,5.80
2015,03,24,00,39,5.80
2015,03,24,00,40,5.80
2015,03,24,00,41,5.80
2015,03,24,00,42,5.80
2015,03,24,00,43,5.80
2015,03,24,00,44,5.80
2015,03,24,00,45,5.80
2015,03,24,00,46,5.80
2015,03,24,00,47,5.80
2015,03,24,00,48,5.80
2015,03,24,00,49,5.80
2015,03,24,00,50,5.80
2015,03,24,00,51,5.80
2015,03,24,00,52,5.80
2015,03,24,00,53,5.80
2015,03,24,00,54,5.70
2015,03,24,00,55,5.70
2015,03,24,00,56,5.70
2015,03,24,00,57,5.70
2015,03,24,00,58,5.70
2015,03,24,00,59,5.70
2015,03,24,01,00,5.70
2015,03,24,01,01,5.70
2015,03,24,01,02,5.70
2015,03,24,01,03,5.70
2015,03,24,01,04,5.70
2015,03,24,01,05,5.70
2015,03,24,01,06,5.70
2015,03,24,01,07,5.70
2015,03,24,01,08,5.70
2015,03,24,01,09,5.70
2015,03,24,01,10,5.70
2015,03,24,01,11,5.70
2015,03,24,01,12,5.70
2015,03,24,01,13,5.70
2015,03,24,01,14,5.70
2015,03,24,01,15,5.70
2015,03,24,01,16,5.70
2015,03,24,01,17,5.70
2015,03,24,01,18,5.70
2015,03,24,01,19,5.70
2015,03,24,01,20,5.70
2015,03,24,01,21,5.70
2015,03,24,01,22,5.70
2015,03,24,01,23,5.70
2015,03,24,01,24,5.70
2015,03,24,01,25,5.70
2015,03,24,01,26,5.70
2015,03,24,01,27,5.70
2015,03,24,01,28,5.70
2015,03,24,01,29,5.70
2015,03,24,01,30,5.70
2015,03,24,01,31,5.70
2015,03,24,01,32,5.70
2015,03,24,01,33,5.70
2015,03,24,01,34,5.70
2015,03,24,01,35,5.70
2015,03,24,01,36,5.70
2015,03,24,01,37,5.70
2015,03,24,01,38,5.70
2015,03,24,01,39,5.70
2015,03,24,01,40,5.70
2015,03,24,01,41,5.70
2015,03,24,01,42,5.70
2015,03,24,01,43,5.70
2015,03,24,01,44,5.70
2015,03,24,01,45,5.70
2015,03,24,01,46,5.70
2015,03,24,01,47,5.70
2015,03,24,01,48,5.70
2015,03,24,01,49,5.70
2015,03,24,01,50,5.70
2015,03,24,01,51,5.70
2015,03,24,01,52,5.70
2015,03,24,01,53,5.70
2015,03,24,01,54,5.70
2015,03,24,01,55,5.70
2015,03,24,01,56,5.70
2015,03,24,01,57,5.70
2015,03,24,01,58,5.70
2015,03,24,01,59,5.70
2015,03,24,02,00,5.70
2015,03,24,02,01,5.70
2015,03,24,02,02,5.70
2015,03,24,02,03,5.70
2015,03,24,02,04,5.70
2015,03,24,02,05,5.70
2015,03,24,02,06,5.70
2015,03,24,02,07,5.70
2015,03,24,02,08,5.80
2015,03,24,02,09,5.80
2015,03,24,02,10,5.80
2015,03,24,02,11,5.80
2015,03,24,02,12,5.80
2015,03,24,02,13,5.80
2015,03,24,02,14,5.80
2015,03,24,02,15,5.80
2015,03,24,02,16,5.80
2015,03,24,02,17,5.80
2015,03,24,02,18,5.80
2015,03,24,02,19,5.80
2015,03,24,02,20,5.80
2015,03,24,02,21,5.80
2015,03,24,02,22,5.80
2015,03,24,02,23,5.80
2015,03,24,02,24,5.80
2015,03,24,02,25,5.80
2015,03,24,02,26,5.80
2015,03,24,02,27,5.80
2015,03,24,02,28,5.80
2015,03,24,02,29,5.80
2015,03,24,02,30,5.80
2015,03,24,02,31,5.80
2015,03,24,02,32,5.80
2015,03,24,02,33,5.80
2015,03,24,02,34,5.70
2015,03,24,02,35,5.70
2015,03,24,02,36,5.70
2015,03,24,02,37,5.70
2015,03,24,02,38,5.70
2015,03,24,02,39,5.70
2015,03,24,02,40,5.70
2015,03,24,02,41,5.70
2015,03,24,02,42,5.70
2015,03,24,02,43,5.70
2015,03,24,02,44,5.70
2015,03,24,02,45,5.70
2015,03,24,02,46,5.70
2015,03,24,02,47,5.70
2015,03,24,02,48,5.70
2015,03,24,02,49,5.70
2015,03,24,02,50,5.70
2015,03,24,02,51,5.70
2015,03,24,02,52,5.70
2015,03,24,02,53,5.70
2015,03,24,02,54,5.70
2015,03,24,02,55,5.70
2015,03,24,02,56,5.70
2015,03,24,02,57,5.70
2015,03,24,02,58,5.70
2015,03,24,02,59,5.70
2015,03,24,03,00,5.70
2015,03,24,03,01,5.70
2015,03,24,03,02,5.70
2015,03,24,03,03,5.70
2015,03,24,03,04,5.70
2015,03,24,03,05,5.60
2015,03,24,03,06,5.60
2015,03,24,03,07,5.60
2015,03,24,03,08,5.60
2015,03,24,03,09,5.60
2015,03,24,03,10,5.60
2015,03,24,03,11,5.60
2015,03,24,03,12,5.60
2015,03,24,03,13,5.60
2015,03,24,03,14,5.60
2015,03,24,03,15,5.60
2015,03,24,03,16,5.60
2015,03,24,03,17,5.60
2015,03,24,03,18,5.60
2015,03,24,03,19,5.50
2015,03,24,03,20,5.50
2015,03,24,03,21,5.50
2015,03,24,03,22,5.50
2015,03,24,03,23,5.40
2015,03,24,03,24,5.40
2015,03,24,03,25,5.40
2015,03,24,03,26,5.40
2015,03,24,03,27,5.40
2015,03,24,03,28,5.40
2015,03,24,03,29,5.40
2015,03,24,03,30,5.40
2015,03,24,03,31,5.30
2015,03,24,03,32,5.30
2015,03,24,03,33,5.30
2015,03,24,03,34,5.30
2015,03,24,03,35,5.30
2015,03,24,03,36,5.30
2015,03,24,03,37,5.30
2015,03,24,03,38,5.30
2015,03,24,03,39,5.30
2015,03,24,03,40,5.30
2015,03,24,03,41,5.30
2015,03,24,03,42,5.30
2015,03,24,03,43,5.20
2015,03,24,03,44,5.20
2015,03,24,03,45,5.20
2015,03,24,03,46,5.20
2015,03,24,03,47,5.10
2015,03,24,03,48,5.10
2015,03,24,03,49,5.10
2015,03,24,03,50,5.10
2015,03,24,03,51,5.10
2015,03,24,03,52,5.00
2015,03,24,03,53,5.00
2015,03,24,03,54,5.00
2015,03,24,03,55,5.00
2015,03,24,03,56,5.00
2015,03,24,03,57,5.00
2015,03,24,03,58,4.90
2015,03,24,03,59,4.90
2015,03,24,04,00,4.90
2015,03,24,04,01,4.90
2015,03,24,04,02,4.80
2015,03,24,04,03,4.80
2015,03,24,04,04,4.80
2015,03,24,04,05,4.80
2015,03,24,04,06,4.80
2015,03,24,04,07,4.70
2015,03,24,04,08,4.70
2015,03,24,04,09,4.70
2015,03,24,04,10,4.70
2015,03,24,04,11,4.70
2015,03,24,04,12,4.70
2015,03,24,04,13,4.70
2015,03,24,04,14,4.70
2015,03,24,04,15,4.70
2015,03,24,04,16,4.70
2015,03,24,04,17,4.70
2015,03,24,04,18,4.70
2015,03,24,04,19,4.70
2015,03,24,04,20,4.70
2015,03,24,04,21,4.70
2015,03,24,04,22,4.70
2015,03,24,04,23,4.70
2015,03,24,04,24,4.60
2015,03,24,04,25,4.60
2015,03,24,04,26,4.60
2015,03,24,04,27,4.60
2015,03,24,04,28,4.60
2015,03,24,04,29,4.50
2015,03,24,04,30,4.50
2015,03,24,04,31,4.40
2015,03,24,04,32,4.40
2015,03,24,04,33,4.30
2015,03,24,04,34,4.30
2015,03,24,04,35,4.30
2015,03,24,04,36,4.30
2015,03,24,04,37,4.30
2015,03,24,04,38,4.20
2015,03,24,04,39,4.20
2015,03,24,04,40,4.20
2015,03,24,04,41,4.20
2015,03,24,04,42,4.20
2015,03,24,04,43,4.20
2015,03,24,04,44,4.20
2015,03,24,04,45,4.20
2015,03,24,04,46,4.20
2015,03,24,04,47,4.20
2015,03,24,04,48,4.20
2015,03,24,04,49,4.30
2015,03,24,04,50,4.30
2015,03,24,04,51,4.40
2015,03,24,04,52,4.40
2015,03,24,04,53,4.40
2015,03,24,04,54,4.40
2015,03,24,04,55,4.40
2015,03,24,04,56,4.40
2015,03,24,04,57,4.40
2015,03,24,04,58,4.40
2015,03,24,04,59,4.40
2015,03,24,05,00,4.40
2015,03,24,05,01,4.40
2015,03,24,05,02,4.30
2015,03,24,05,03,4.30
2015,03,24,05,04,4.30
2015,03,24,05,05,4.30
2015,03,24,05,06,4.30
2015,03,24,05,07,4.30
2015,03,24,05,08,4.30
2015,03,24,05,09,4.30
2015,03,24,05,10,4.30
2015,03,24,05,11,4.30
2015,03,24,05,12,4.30
2015,03,24,05,13,4.20
2015,03,24,05,14,4.20
2015,03,24,05,15,4.20
2015,03,24,05,16,4.20
2015,03,24,05,17,4.20
2015,03,24,05,18,4.20
2015,03,24,05,19,4.20
2015,03,24,05,20,4.20
2015,03,24,05,21,4.20
2015,03,24,05,22,4.20
2015,03,24,05,23,4.10
2015,03,24,05,24,4.10
2015,03,24,05,25,4.10
2015,03,24,05,26,4.00
2015,03,24,05,27,4.00
2015,03,24,05,28,3.90
2015,03,24,05,29,3.90
2015,03,24,05,30,3.90
2015,03,24,05,31,3.80
2015,03,24,05,32,3.80
2015,03,24,05,33,3.80
2015,03,24,05,34,3.70
2015,03,24,05,35,3.70
2015,03,24,05,36,3.70
2015,03,24,05,37,3.70
2015,03,24,05,38,3.60
2015,03,24,05,39,3.60
2015,03,24,05,40,3.50
2015,03,24,05,41,3.50
2015,03,24,05,42,3.50
2015,03,24,05,43,3.50
2015,03,24,05,44,3.50
2015,03,24,05,45,3.50
2015,03,24,05,46,3.40
2015,03,24,05,47,3.40
2015,03,24,05,48,3.40
2015,03,24,05,49,3.40
2015,03,24,05,50,3.40
2015,03,24,05,51,3.40
2015,03,24,05,52,3.40
2015,03,24,05,53,3.40
2015,03,24,05,54,3.40
2015,03,24,05,55,3.40
2015,03,24,05,56,3.40
2015,03,24,05,57,3.40
2015,03,24,05,58,3.40
2015,03,24,05,59,3.40
2015,03,24,06,00,3.40
2015,03,24,06,01,3.40
2015,03,24,06,02,3.30
2015,03,24,06,03,3.30
2015,03,24,06,04,3.30
2015,03,24,06,05,3.30
2015,03,24,06,06,3.30
2015,03,24,06,07,3.30
2015,03,24,06,08,3.30
2015,03,24,06,09,3.30
2015,03,24,06,10,3.30
2015,03,24,06,11,3.30
2015,03,24,06,12,3.30
2015,03,24,06,13,3.30
2015,03,24,06,14,3.30
2015,03,24,06,15,3.30
2015,03,24,06,16,3.30
2015,03,24,06,17,3.30
2015,03,24,06,18,3.30
2015,03,24,06,19,3.30
2015,03,24,06,20,3.20
2015,03,24,06,21,3.20
2015,03,24,06,22,3.10
2015,03,24,06,23,3.10
2015,03,24,06,24,3.00
2015,03,24,06,25,3.00
2015,03,24,06,26,3.00
2015,03,24,06,27,2.90
2015,03,24,06,28,2.90
2015,03,24,06,29,2.90
2015,03,24,06,30,2.90
2015,03,24,06,31,2.90
2015,03,24,06,32,3.00
2015,03,24,06,33,3.00
2015,03,24,06,34,3.00
2015,03,24,06,35,3.00
2015,03,24,06,36,2.90
2015,03,24,06,37,2.90
2015,03,24,06,38,3.00
2015,03,24,06,39,3.00
2015,03,24,06,40,3.00
2015,03,24,06,41,3.00
2015,03,24,06,42,3.00
2015,03,24,06,43,3.00
2015,03,24,06,44,3.00
2015,03,24,06,45,2.90
2015,03,24,06,46,2.90
2015,03,24,06,47,2.90
2015,03,24,06,48,2.80
2015,03,24,06,49,2.80
2015,03,24,06,50,2.80
2015,03,24,06,51,2.70
2015,03,24,06,52,2.70
2015,03,24,06,53,2.70
2015,03,24,06,54,2.70
2015,03,24,06,55,2.70
2015,03,24,06,56,2.70
2015,03,24,06,57,2.80
2015,03,24,06,58,2.80
2015,03,24,06,59,2.80
2015,03,24,07,00,2.90
2015,03,24,07,01,2.90
2015,03,24,07,02,2.90
2015,03,24,07,03,2.90
2015,03,24,07,04,2.90
2015,03,24,07,05,2.90
2015,03,24,07,06,2.90
2015,03,24,07,07,3.00
2015,03,24,07,08,3.00
2015,03,24,07,09,3.00
2015,03,24,07,10,3.00
2015,03,24,07,11,2.90
2015,03,24,07,12,2.90
2015,03,24,07,13,2.90
2015,03,24,07,14,2.90
2015,03,24,07,15,3.00
2015,03,24,07,16,3.10
2015,03,24,07,17,3.20
2015,03,24,07,18,3.30
2015,03,24,07,19,3.30
2015,03,24,07,20,3.30
2015,03,24,07,21,3.40
2015,03,24,07,22,3.40
2015,03,24,07,23,3.50
2015,03,24,07,24,3.50
2015,03,24,07,25,3.50
2015,03,24,07,26,3.40
2015,03,24,07,27,3.40
2015,03,24,07,28,3.30
2015,03,24,07,29,3.30
2015,03,24,07,30,3.30
2015,03,24,07,31,3.30
2015,03,24,07,32,3.30
2015,03,24,07,33,3.30
2015,03,24,07,34,3.30
2015,03,24,07,35,3.20
2015,03,24,07,36,3.20
2015,03,24,07,37,3.10
2015,03,24,07,38,3.00
2015,03,24,07,39,3.00
2015,03,24,07,40,2.90
2015,03,24,07,41,2.90
2015,03,24,07,42,2.90
2015,03,24,07,43,2.90
2015,03,24,07,44,2.90
2015,03,24,07,45,3.00
2015,03,24,07,46,3.00
2015,03,24,07,47,3.10
2015,03,24,07,48,3.10
2015,03,24,07,49,3.10
2015,03,24,07,50,3.20
2015,03,24,07,51,3.20
2015,03,24,07,52,3.20
2015,03,24,07,53,3.10
2015,03,24,07,54,3.10
2015,03,24,07,55,3.10
2015,03,24,07,56,3.10
2015,03,24,07,57,3.10
2015,03,24,07,58,3.10
2015,03,24,07,59,3.10
2015,03,24,08,00,3.10
2015,03,24,08,01,3.10
2015,03,24,08,02,3.20
2015,03,24,08,03,3.20
2015,03,24,08,04,3.20
2015,03,24,08,05,3.20
2015,03,24,08,06,3.20
2015,03,24,08,07,3.20
2015,03,24,08,08,3.20
2015,03,24,08,09,3.20
2015,03,24,08,10,3.30
2015,03,24,08,11,3.30
2015,03,24,08,12,3.30
2015,03,24,08,13,3.30
2015,03,24,08,14,3.30
2015,03,24,08,15,3.30
2015,03,24,08,16,3.40
2015,03,24,08,17,3.50
2015,03,24,08,18,3.50
2015,03,24,08,19,3.60
2015,03,24,08,20,3.70
2015,03,24,08,21,3.80
2015,03,24,08,22,3.90
2015,03,24,08,23,3.90
2015,03,24,08,24,4.00
2015,03,24,08,25,4.00
2015,03,24,08,26,4.10
2015,03,24,08,27,4.20
2015,03,24,08,28,4.20
2015,03,24,08,29,4.30
2015,03,24,08,30,4.30
2015,03,24,08,31,4.30
2015,03,24,08,32,4.30
2015,03,24,08,33,4.30
2015,03,24,08,34,4.30
2015,03,24,08,35,4.30
2015,03,24,08,36,4.40
2015,03,24,08,37,4.40
2015,03,24,08,38,4.40
2015,03,24,08,39,4.40
2015,03,24,08,40,4.50
2015,03,24,08,41,4.50
2015,03,24,08,42,4.50
2015,03,24,08,43,4.50
2015,03,24,08,44,4.50
2015,03,24,08,45,4.60
2015,03,24,08,46,4.60
2015,03,24,08,47,4.60
2015,03,24,08,48,4.70
2015,03,24,08,49,4.80
2015,03,24,08,50,4.80
2015,03,24,08,51,4.90
2015,03,24,08,52,4.90
2015,03,24,08,53,4.90
2015,03,24,08,54,5.00
2015,03,24,08,55,5.00
2015,03,24,08,56,5.10
2015,03,24,08,57,5.10
2015,03,24,08,58,5.10
2015,03,24,08,59,5.20
2015,03,24,09,00,5.20
2015,03,24,09,01,5.30
2015,03,24,09,02,5.30
2015,03,24,09,03,5.40
2015,03,24,09,04,5.40
2015,03,24,09,05,5.50
2015,03,24,09,06,5.50
2015,03,24,09,07,5.60
2015,03,24,09,08,5.60
2015,03,24,09,09,5.60
2015,03,24,09,10,5.60
2015,03,24,09,11,5.70
2015,03,24,09,12,5.70
2015,03,24,09,13,5.70
2015,03,24,09,14,5.80
2015,03,24,09,15,5.80
2015,03,24,09,16,5.90
2015,03,24,09,17,6.10
2015,03,24,09,18,6.10
2015,03,24,09,19,6.20
2015,03,24,09,20,6.20
2015,03,24,09,21,6.30
2015,03,24,09,22,6.30
2015,03,24,09,23,6.40
2015,03,24,09,24,6.40
2015,03,24,09,25,6.40
2015,03,24,09,26,6.50
2015,03,24,09,27,6.50
2015,03,24,09,28,6.50
2015,03,24,09,29,6.60
2015,03,24,09,30,6.60
2015,03,24,09,31,6.50
2015,03,24,09,32,6.60
2015,03,24,09,33,6.60
2015,03,24,09,34,6.60
2015,03,24,09,35,6.70
2015,03,24,09,36,6.80
2015,03,24,09,37,6.80
2015,03,24,09,38,6.90
2015,03,24,09,39,7.00
2015,03,24,09,40,7.00
2015,03,24,09,41,7.20
2015,03,24,09,42,7.20
2015,03,24,09,43,7.30
2015,03,24,09,44,7.30
2015,03,24,09,45,7.30
2015,03,24,09,46,7.30
2015,03,24,09,47,7.30
2015,03,24,09,48,7.30
2015,03,24,09,49,7.30
2015,03,24,09,50,7.30
2015,03,24,09,51,7.40
2015,03,24,09,52,7.40
2015,03,24,09,53,7.40
2015,03,24,09,54,7.50
2015,03,24,09,55,7.50
2015,03,24,09,56,7.60
2015,03,24,09,57,7.60
2015,03,24,09,58,7.70
2015,03,24,09,59,7.80
2015,03,24,10,00,7.80
2015,03,24,10,01,7.80
2015,03,24,10,02,7.80
2015,03,24,10,03,7.90
2015,03,24,10,04,7.90
2015,03,24,10,05,7.90
2015,03,24,10,06,7.90
2015,03,24,10,07,7.90
2015,03,24,10,08,7.90
2015,03,24,10,09,7.90
2015,03,24,10,10,7.90
2015,03,24,10,11,7.90
2015,03,24,10,12,7.90
2015,03,24,10,13,7.90
2015,03,24,10,14,7.90
2015,03,24,10,15,8.00
2015,03,24,10,16,8.00
2015,03,24,10,17,8.00
2015,03,24,10,18,8.10
2015,03,24,10,19,8.10
2015,03,24,10,20,8.10
2015,03,24,10,21,8.20
2015,03,24,10,22,8.20
2015,03,24,10,23,8.20
2015,03,24,10,24,8.30
2015,03,24,10,25,8.30
2015,03,24,10,26,8.40
2015,03,24,10,27,8.50
2015,03,24,10,28,8.50
2015,03,24,10,29,8.60
2015,03,24,10,30,8.70
2015,03,24,10,31,8.70
2015,03,24,10,32,8.80
2015,03,24,10,33,8.80
2015,03,24,10,34,8.90
2015,03,24,10,35,8.90
2015,03,24,10,36,9.00
2015,03,24,10,37,9.10
2015,03,24,10,38,9.20
2015,03,24,10,39,9.20
2015,03,24,10,40,9.30
2015,03,24,10,41,9.30
2015,03,24,10,42,9.30
2015,03,24,10,43,9.40
2015,03,24,10,44,9.40
2015,03,24,10,45,9.40
2015,03,24,10,46,9.50
2015,03,24,10,47,9.50
2015,03,24,10,48,9.60
2015,03,24,10,49,9.60
2015,03,24,10,50,9.60
2015,03,24,10,51,9.60
2015,03,24,10,52,9.60
2015,03,24,10,53,9.70
2015,03,24,10,54,9.70
2015,03,24,10,55,9.80
2015,03,24,10,56,9.80
2015,03,24,10,57,9.90
2015,03,24,10,58,9.90
2015,03,24,10,59,10.00
2015,03,24,11,00,10.10
2015,03,24,11,01,10.10
2015,03,24,11,02,10.20
2015,03,24,11,03,10.20
2015,03,24,11,04,10.20
2015,03,24,11,05,10.30
2015,03,24,11,06,10.30
2015,03,24,11,07,10.30
2015,03,24,11,08,10.30
2015,03,24,11,09,10.30
2015,03,24,11,10,10.30
2015,03,24,11,11,10.40
2015,03,24,11,12,10.40
2015,03,24,11,13,10.40
2015,03,24,11,14,10.40
2015,03,24,11,15,10.50
2015,03,24,11,16,10.40
2015,03,24,11,17,10.40
2015,03,24,11,18,10.40
2015,03,24,11,19,10.40
2015,03,24,11,20,10.50
2015,03,24,11,21,10.50
2015,03,24,11,22,10.50
2015,03,24,11,23,10.60
2015,03,24,11,24,10.60
2015,03,24,11,25,10.60
2015,03,24,11,26,10.60
2015,03,24,11,27,10.70
2015,03,24,11,28,10.70
2015,03,24,11,29,10.80
2015,03,24,11,30,10.80
2015,03,24,11,31,10.90
2015,03,24,11,32,10.90
2015,03,24,11,33,10.90
2015,03,24,11,34,11.00
2015,03,24,11,35,11.00
2015,03,24,11,36,11.00
2015,03,24,11,37,11.00
2015,03,24,11,38,11.10
2015,03,24,11,39,11.10
2015,03,24,11,40,11.10
2015,03,24,11,41,11.10
2015,03,24,11,42,11.00
2015,03,24,11,43,11.10
2015,03,24,11,44,11.10
2015,03,24,11,45,11.00
2015,03,24,11,46,11.00
2015,03,24,11,47,11.00
2015,03,24,11,48,11.00
2015,03,24,11,49,11.00
2015,03,24,11,50,11.10
2015,03,24,11,51,11.10
2015,03,24,11,52,11.20
2015,03,24,11,53,11.20
2015,03,24,11,54,11.20
2015,03,24,11,55,11.20
2015,03,24,11,56,11.30
2015,03,24,11,57,11.30
2015,03,24,11,58,11.40
2015,03,24,11,59,11.40
2015,03,24,12,00,11.40
2015,03,24,12,01,11.40
2015,03,24,12,02,11.50
2015,03,24,12,03,11.50
2015,03,24,12,04,11.50
2015,03,24,12,05,11.50
2015,03,24,12,06,11.40
2015,03,24,12,07,11.40
2015,03,24,12,08,11.40
2015,03,24,12,09,11.40
2015,03,24,12,10,11.40
2015,03,24,12,11,11.30
2015,03,24,12,12,11.40
2015,03,24,12,13,11.30
2015,03,24,12,14,11.30
2015,03,24,12,15,11.30
2015,03,24,12,16,11.20
2015,03,24,12,17,11.20
2015,03,24,12,18,11.20
2015,03,24,12,19,11.20
2015,03,24,12,20,11.20
2015,03,24,12,21,11.20
2015,03,24,12,22,11.20
2015,03,24,12,23,11.20
2015,03,24,12,24,11.20
2015,03,24,12,25,11.10
2015,03,24,12,26,11.10
2015,03,24,12,27,11.10
2015,03,24,12,28,11.10
2015,03,24,12,29,11.10
2015,03,24,12,30,11.10
2015,03,24,12,31,11.20
2015,03,24,12,32,11.20
2015,03,24,12,33,11.20
2015,03,24,12,34,11.20
2015,03,24,12,35,11.20
2015,03,24,12,36,11.20
2015,03,24,12,37,11.20
2015,03,24,12,38,11.20
2015,03,24,12,39,11.20
2015,03,24,12,40,11.20
2015,03,24,12,41,11.20
2015,03,24,12,42,11.20
2015,03,24,12,43,11.20
2015,03,24,12,44,11.20
2015,03,24,12,45,11.10
2015,03,24,12,46,11.10
2015,03,24,12,47,11.10
2015,03,24,12,48,11.10
2015,03,24,12,49,11.20
2015,03,24,12,50,11.30
2015,03,24,12,51,11.30
2015,03,24,12,52,11.30
2015,03,24,12,53,11.30
2015,03,24,12,54,11.20
2015,03,24,12,55,11.10
2015,03,24,12,56,11.10
2015,03,24,12,57,11.00
2015,03,24,12,58,11.00
2015,03,24,12,59,10.90
2015,03,24,13,00,10.90
2015,03,24,13,01,10.90
2015,03,24,13,02,11.00
2015,03,24,13,03,11.00
2015,03,24,13,04,11.00
2015,03,24,13,05,11.00
2015,03,24,13,06,11.00
2015,03,24,13,07,11.00
2015,03,24,13,08,11.10
2015,03,24,13,09,11.10
2015,03,24,13,10,11.20
2015,03,24,13,11,11.20
2015,03,24,13,12,11.20
2015,03,24,13,13,11.10
2015,03,24,13,14,11.10
2015,03,24,13,15,11.00
2015,03,24,13,16,11.00
2015,03,24,13,17,11.00
2015,03,24,13,18,11.00
2015,03,24,13,19,11.10
2015,03,24,13,20,11.10
2015,03,24,13,21,11.20
2015,03,24,13,22,11.30
2015,03,24,13,23,11.30
2015,03,24,13,24,11.30
2015,03,24,13,25,11.30
2015,03,24,13,26,11.40
2015,03,24,13,27,11.50
2015,03,24,13,28,11.50
2015,03,24,13,29,11.60
2015,03,24,13,30,11.60
2015,03,24,13,31,11.70
2015,03,24,13,32,11.70
2015,03,24,13,33,11.70
2015,03,24,13,34,11.80
2015,03,24,13,35,11.80
2015,03,24,13,36,11.80
2015,03,24,13,37,11.80
2015,03,24,13,38,11.90
2015,03,24,13,39,12.00
2015,03,24,13,40,12.00
2015,03,24,13,41,12.10
2015,03,24,13,42,12.20
2015,03,24,13,43,12.20
2015,03,24,13,44,12.20
2015,03,24,13,45,12.10
2015,03,24,13,46,12.00
2015,03,24,13,47,11.90
2015,03,24,13,48,11.80
2015,03,24,13,49,11.80
2015,03,24,13,50,11.70
2015,03,24,13,51,11.70
2015,03,24,13,52,11.60
2015,03,24,13,53,11.60
2015,03,24,13,54,11.60
2015,03,24,13,55,11.60
2015,03,24,13,56,11.70
2015,03,24,13,57,11.70
2015,03,24,13,58,11.70
2015,03,24,13,59,11.80
2015,03,24,14,00,11.70
2015,03,24,14,01,11.70
2015,03,24,14,02,11.70
2015,03,24,14,03,11.60
2015,03,24,14,04,11.60
2015,03,24,14,05,11.60
2015,03,24,14,06,11.60
2015,03,24,14,07,11.60
2015,03,24,14,08,11.60
2015,03,24,14,09,11.60
2015,03,24,14,10,11.60
2015,03,24,14,11,11.70
2015,03,24,14,12,11.70
2015,03,24,14,13,11.70
2015,03,24,14,14,11.80
2015,03,24,14,15,11.90
2015,03,24,14,16,12.00
2015,03,24,14,17,12.00
2015,03,24,14,18,12.00
2015,03,24,14,19,12.00
2015,03,24,14,20,12.00
2015,03,24,14,21,12.10
2015,03,24,14,22,12.20
2015,03,24,14,23,12.30
2015,03,24,14,24,12.30
2015,03,24,14,25,12.30
2015,03,24,14,26,12.30
2015,03,24,14,27,12.30
2015,03,24,14,28,12.30
2015,03,24,14,29,12.40
2015,03,24,14,30,12.40
2015,03,24,14,31,12.40
2015,03,24,14,32,12.40
2015,03,24,14,33,12.40
2015,03,24,14,34,12.30
2015,03,24,14,35,12.30
2015,03,24,14,36,12.30
2015,03,24,14,37,12.30
2015,03,24,14,38,12.30
2015,03,24,14,39,12.20
2015,03,24,14,40,12.20
2015,03,24,14,41,12.20
2015,03,24,14,42,12.20
2015,03,24,14,43,12.20
2015,03,24,14,44,12.20
2015,03,24,14,45,12.20
2015,03,24,14,46,12.10
2015,03,24,14,47,12.10
2015,03,24,14,48,12.10
2015,03,24,14,49,12.10
2015,03,24,14,50,12.10
2015,03,24,14,51,12.10
2015,03,24,14,52,12.20
2015,03,24,14,53,12.20
2015,03,24,14,54,12.20
2015,03,24,14,55,12.20
2015,03,24,14,56,12.10
2015,03,24,14,57,12.00
2015,03,24,14,58,12.00
2015,03,24,14,59,11.90
2015,03,24,15,00,11.70
2015,03,24,15,01,11.70
2015,03,24,15,02,11.70
2015,03,24,15,03,11.70
2015,03,24,15,04,11.70
2015,03,24,15,05,11.70
2015,03,24,15,06,11.80
2015,03,24,15,07,11.70
2015,03,24,15,08,11.70
2015,03,24,15,09,11.70
2015,03,24,15,10,11.70
2015,03,24,15,11,11.70
2015,03,24,15,12,11.70
2015,03,24,15,13,11.70
2015,03,24,15,14,11.70
2015,03,24,15,15,11.70
2015,03,24,15,16,11.70
2015,03,24,15,17,11.70
2015,03,24,15,18,11.60
2015,03,24,15,19,11.60
2015,03,24,15,20,11.60
2015,03,24,15,21,11.60
2015,03,24,15,22,11.60
2015,03,24,15,23,11.50
2015,03,24,15,24,11.50
2015,03,24,15,25,11.50
2015,03,24,15,26,11.50
2015,03,24,15,27,11.50
2015,03,24,15,28,11.60
2015,03,24,15,29,11.60
2015,03,24,15,30,11.60
2015,03,24,15,31,11.60
2015,03,24,15,32,11.60
2015,03,24,15,33,11.60
2015,03,24,15,34,11.60
2015,03,24,15,35,11.60
2015,03,24,15,36,11.60
2015,03,24,15,37,11.60
2015,03,24,15,38,11.60
2015,03,24,15,39,11.60
2015,03,24,15,40,11.70
2015,03,24,15,41,11.70
2015,03,24,15,42,11.70
2015,03,24,15,43,11.70
2015,03,24,15,44,11.70
2015,03,24,15,45,11.70
2015,03,24,15,46,11.80
2015,03,24,15,47,11.80
2015,03,24,15,48,11.80
2015,03,24,15,49,11.90
2015,03,24,15,50,11.90
2015,03,24,15,51,11.90
2015,03,24,15,52,11.90
2015,03,24,15,53,12.00
2015,03,24,15,54,11.90
2015,03,24,15,55,11.90
2015,03,24,15,56,11.90
2015,03,24,15,57,11.90
2015,03,24,15,58,11.90
2015,03,24,15,59,11.90
2015,03,24,16,00,11.90
2015,03,24,16,01,11.90
2015,03,24,16,02,12.00
2015,03,24,16,03,12.00
2015,03,24,16,04,12.10
2015,03,24,16,05,12.20
2015,03,24,16,06,12.20
2015,03,24,16,07,12.20
2015,03,24,16,08,12.20
2015,03,24,16,09,12.20
2015,03,24,16,10,12.10
2015,03,24,16,11,12.10
2015,03,24,16,12,12.10
2015,03,24,16,13,12.10
2015,03,24,16,14,12.10
2015,03,24,16,15,12.10
2015,03,24,16,16,12.10
2015,03,24,16,17,12.10
2015,03,24,16,18,12.10
2015,03,24,16,19,12.10
2015,03,24,16,20,12.10
2015,03,24,16,21,12.20
2015,03,24,16,22,12.20
2015,03,24,16,23,12.20
2015,03,24,16,24,12.30
2015,03,24,16,25,12.30
2015,03,24,16,26,12.20
2015,03,24,16,27,12.20
2015,03,24,16,28,12.20
2015,03,24,16,29,12.20
2015,03,24,16,30,12.10
2015,03,24,16,31,12.10
2015,03,24,16,32,12.10
2015,03,24,16,33,12.10
2015,03,24,16,34,12.10
2015,03,24,16,35,12.10
2015,03,24,16,36,12.10
2015,03,24,16,37,12.20
2015,03,24,16,38,12.20
2015,03,24,16,39,12.20
2015,03,24,16,40,12.30
2015,03,24,16,41,12.40
2015,03,24,16,42,12.40
2015,03,24,16,43,12.40
2015,03,24,16,44,12.50
2015,03,24,16,45,12.50
2015,03,24,16,46,12.50
2015,03,24,16,47,12.60
2015,03,24,16,48,12.70
2015,03,24,16,49,12.70
2015,03,24,16,50,12.80
2015,03,24,16,51,12.80
2015,03,24,16,52,12.90
2015,03,24,16,53,12.90
2015,03,24,16,54,13.00
2015,03,24,16,55,13.10
2015,03,24,16,56,13.20
2015,03,24,16,57,13.20
2015,03,24,16,58,13.40
2015,03,24,16,59,13.50
2015,03,24,17,00,13.60
2015,03,24,17,01,13.70
2015,03,24,17,02,13.80
2015,03,24,17,03,13.90
2015,03,24,17,04,14.00
2015,03,24,17,05,14.00
2015,03,24,17,06,14.00
2015,03,24,17,07,14.00
2015,03,24,17,08,13.90
2015,03,24,17,09,13.80
2015,03,24,17,10,13.70
2015,03,24,17,11,13.60
2015,03,24,17,12,13.50
2015,03,24,17,13,13.40
2015,03,24,17,14,13.40
2015,03,24,17,15,13.40
2015,03,24,17,16,13.40
2015,03,24,17,17,13.30
2015,03,24,17,18,13.20
2015,03,24,17,19,13.10
2015,03,24,17,20,13.10
2015,03,24,17,21,13.10
2015,03,24,17,22,13.10
2015,03,24,17,23,13.10
2015,03,24,17,24,13.00
2015,03,24,17,25,13.00
2015,03,24,17,26,12.90
2015,03,24,17,27,12.80
2015,03,24,17,28,12.80
2015,03,24,17,29,12.80
2015,03,24,17,30,12.80
2015,03,24,17,31,12.80
2015,03,24,17,32,12.80
2015,03,24,17,33,12.80
2015,03,24,17,34,12.80
2015,03,24,17,35,12.80
2015,03,24,17,36,12.90
2015,03,24,17,37,12.90
2015,03,24,17,38,12.90
2015,03,24,17,39,12.80
2015,03,24,17,40,12.80
2015,03,24,17,41,12.80
2015,03,24,17,42,12.70
2015,03,24,17,43,12.60
2015,03,24,17,44,12.60
2015,03,24,17,45,12.60
2015,03,24,17,46,12.50
2015,03,24,17,47,12.40
2015,03,24,17,48,12.40